EW0150 Weather Reports


time (UTC)temp
C
wind
direction
speed
KPH
gust
KPH
rain 1hr
cm
rain 24hr
cm
rain mn
cm
humidity
%
barometer
mb
20260507015006 12 217 1.6 4.8 0.00 0.00 0.00 85 1006.6
20260507014006 12 217 0.0 3.2 0.00 0.00 0.00 86 1006.6
20260507013007 12 217 1.6 1.6 0.00 0.00 0.00 86 1006.5
20260507012006 12 217 3.2 4.8 0.00 0.00 0.00 86 1006.4
20260507010009 13 216 3.2 4.8 0.00 0.00 0.00 84 1006.3
20260507004008 13 217 1.6 3.2 0.00 0.00 0.00 83 1006.3
20260507003009 13 217 4.8 6.4 0.00 0.00 0.00 83 1006.4
20260507002006 13 278 3.2 4.8 0.00 0.00 0.00 82 1006.3
20260507001009 13 278 1.6 4.8 0.00 0.00 0.00 82 1006.4
20260507000012 13 278 1.6 4.8 0.00 0.00 0.00 81 1006.4
20260506235008 13 278 3.2 4.8 0.00 0.00 0.00 81 1006.3
20260506233006 13 315 1.6 3.2 0.00 0.00 0.00 80 1006.4
20260506232006 13 315 4.8 6.4 0.00 0.00 0.00 79 1006.5
20260506231006 14 313 4.8 8.0 0.00 0.00 0.00 77 1006.6
20260506230008 15 289 3.2 8.0 0.00 0.00 0.00 75 1006.5
20260506225006 15 302 4.8 8.0 0.00 0.00 0.00 73 1006.4
20260506224006 16 331 8.0 12.9 0.00 0.00 0.00 69 1006.5
20260506223006 16 333 6.4 17.7 0.00 0.00 0.00 65 1006.5
20260506222006 17 201 4.8 8.0 0.00 0.00 0.00 62 1006.3
20260506221004 18 217 6.4 14.5 0.00 0.00 0.00 60 1006.2
20260506215003 18 169 9.7 16.1 0.00 0.00 0.00 59 1006.1
20260506214005 18 184 11.3 17.7 0.00 0.00 0.00 58 1006.1
20260506213005 18 183 11.3 16.1 0.00 0.00 0.00 58 1006.0
20260506212005 18 163 9.7 16.1 0.00 0.00 0.00 58 1006.0
20260506211005 18 171 9.7 16.1 0.00 0.00 0.00 58 1005.9
20260506210009 18 181 11.3 16.1 0.00 0.00 0.00 58 1005.9
20260506205007 18 178 12.9 22.5 0.00 0.00 0.00 57 1005.9
20260506204008 19 187 12.9 24.1 0.00 0.00 0.00 57 1005.7
20260506203006 19 190 9.7 16.1 0.00 0.00 0.00 57 1005.8
20260506202005 19 163 11.3 16.1 0.00 0.00 0.00 56 1005.6
20260506201004 19 163 11.3 19.3 0.00 0.00 0.00 56 1005.5
20260506200007 19 148 11.3 17.7 0.00 0.00 0.00 56 1005.5
20260506195004 19 159 11.3 17.7 0.00 0.00 0.00 56 1005.5
20260506194005 19 142 9.7 14.5 0.00 0.00 0.00 56 1005.5
20260506193004 19 140 8.0 12.9 0.00 0.00 0.00 57 1005.3
20260506192005 19 153 8.0 11.3 0.00 0.00 0.00 56 1005.3
20260506191005 20 150 8.0 12.9 0.00 0.00 0.00 54 1005.3
20260506190009 20 162 6.4 9.7 0.00 0.00 0.00 53 1005.3
20260506185004 20 150 6.4 12.9 0.00 0.00 0.00 53 1005.2
20260506184007 20 156 9.7 17.7 0.00 0.00 0.00 52 1005.0
20260506182005 21 165 14.5 24.1 0.00 0.00 0.00 50 1004.9
20260506181004 21 163 14.5 22.5 0.00 0.00 0.00 49 1004.9
20260506180008 21 145 16.1 29.0 0.00 0.00 0.00 49 1004.9
20260506175005 21 190 16.1 29.0 0.00 0.00 0.00 48 1004.9
20260506174004 22 180 17.7 29.0 0.00 0.00 0.00 47 1004.9
20260506173005 22 203 16.1 25.7 0.00 0.00 0.00 48 1005.0
20260506172004 22 142 12.9 24.1 0.00 0.00 0.00 48 1004.9
20260506171004 22 189 14.5 24.1 0.00 0.00 0.00 47 1004.9
20260506165005 22 184 12.9 20.9 0.00 0.00 0.00 47 1004.9
20260506164005 22 178 8.0 17.7 0.00 0.00 0.00 48 1005.0
20260506163007 22 221 4.8 8.0 0.00 0.00 0.00 49 1005.0
20260506162007 22 209 4.8 9.7 0.00 0.00 0.00 49 1005.2
20260506160007 22 198 11.3 20.9 0.00 0.00 0.00 48 1005.3
20260506155005 22 163 11.3 17.7 0.00 0.00 0.00 47 1005.5
20260506153004 23 145 9.7 16.1 0.00 0.00 0.00 46 1005.6
20260506152004 23 202 9.7 17.7 0.00 0.00 0.00 47 1005.7
20260506151005 23 191 9.7 20.9 0.00 0.00 0.00 47 1005.8
20260506150009 23 213 12.9 20.9 0.00 0.00 0.00 45 1005.9
20260506145006 23 248 11.3 22.5 0.00 0.00 0.00 46 1006.0
20260506144007 23 211 14.5 22.5 0.00 0.00 0.00 46 1005.9
20260506142004 23 246 12.9 20.9 0.00 0.00 0.00 44 1006.1
20260506141004 23 180 16.1 30.6 0.00 0.00 0.00 43 1006.3
20260506140006 23 217 16.1 29.0 0.00 0.00 0.00 43 1006.4
20260506135003 23 307 16.1 25.7 0.00 0.00 0.00 43 1006.4
20260506134004 23 267 16.1 30.6 0.00 0.00 0.00 42 1006.3
20260506133006 24 238 20.9 33.8 0.00 0.00 0.00 41 1006.4
20260506132006 25 269 19.3 33.8 0.00 0.00 0.00 41 1006.4
20260506131004 24 242 19.3 33.8 0.00 0.00 0.00 37 1006.6
20260506130008 25 224 17.7 30.6 0.00 0.00 0.00 40 1006.6
20260506125006 24 189 19.3 32.2 0.00 0.00 0.00 43 1006.7
20260506123006 25 159 17.7 33.8 0.00 0.00 0.00 43 1006.7
20260506122005 25 222 19.3 35.4 0.00 0.00 0.00 44 1006.7
20260506121006 23 217 19.3 33.8 0.00 0.00 0.00 45 1006.8
20260506120008 23 187 20.9 41.8 0.00 0.00 0.00 44 1006.8
20260506115006 24 193 19.3 38.6 0.00 0.00 0.00 46 1006.8
20260506111005 23 198 17.7 30.6 0.00 0.00 0.00 49 1006.8
20260506110008 23 203 22.5 41.8 0.00 0.00 0.00 48 1007.0
20260506105005 22 174 17.7 30.6 0.00 0.00 0.00 49 1007.0
20260506104008 23 220 16.1 27.4 0.00 0.00 0.00 50 1007.2
20260506103008 23 209 17.7 37.0 0.00 0.00 0.00 52 1007.1
20260506102008 22 214 22.5 32.2 0.00 0.00 0.00 51 1007.1
20260506095007 22 192 19.3 33.8 0.00 0.00 0.00 54 1007.1
20260506093008 22 221 16.1 37.0 0.00 0.00 0.00 54 1007.3
20260506092007 20 188 19.3 35.4 0.00 0.00 0.00 56 1007.2
20260506091007 21 210 22.5 35.4 0.00 0.00 0.00 55 1007.1
20260506090009 21 196 22.5 40.2 0.00 0.00 0.00 54 1007.0
20260506085007 21 244 19.3 35.4 0.00 0.00 0.00 56 1006.9
20260506083007 20 188 19.3 35.4 0.00 0.00 0.00 58 1006.9
20260506082007 20 165 17.7 32.2 0.00 0.00 0.00 58 1006.9
20260506073006 18 247 19.3 32.2 0.00 0.00 0.00 62 1006.9
20260506072007 18 237 19.3 32.2 0.00 0.00 0.00 62 1006.8
20260506071005 18 227 19.3 27.4 0.00 0.00 0.00 63 1006.7
20260506062007 16 234 17.7 35.4 0.00 0.00 0.00 66 1006.5
20260506051004 15 254 14.5 25.7 0.00 0.00 0.00 69 1006.1
20260506045004 14 246 9.7 19.3 0.00 0.00 0.00 71 1006.0
20260506044005 14 227 12.9 24.1 0.00 0.00 0.00 71 1005.9
20260506043005 14 179 11.3 24.1 0.00 0.00 0.00 70 1005.9
20260506042005 13 194 8.0 16.1 0.00 0.00 0.00 71 1005.9
20260506041004 13 209 6.4 12.9 0.00 0.00 0.00 72 1005.8
20260506040008 13 219 9.7 19.3 0.00 0.00 0.00 71 1005.8
20260506035005 13 205 11.3 16.1 0.00 0.00 0.00 71 1005.6
20260506034006 13 204 11.3 16.1 0.00 0.00 0.00 72 1005.6
20260506033009 13 197 8.0 19.3 0.00 0.00 0.00 72 1005.6
20260506031007 12 223 4.8 8.0 0.00 0.00 0.00 72 1005.7
20260506030009 12 213 4.8 11.3 0.00 0.00 0.00 72 1005.6
20260506025006 12 227 6.4 9.7 0.00 0.00 0.00 72 1005.6
20260506023010 12 235 3.2 6.4 0.00 0.00 0.00 70 1005.8
20260506022008 12 200 4.8 6.4 0.00 0.00 0.00 71 1005.7
20260506021010 12 232 1.6 4.8 0.00 0.00 0.00 71 1005.8
20260506020013 12 232 1.6 3.2 0.00 0.00 0.00 71 1005.7